Regional Weather Roundup
Issued by NWS

Home | Current Version | Previous Version | Graphics & Text | Print | Product List | Glossary Off
Versions: 1 2 3 4 5 6 7 8 9 10 11 12 13 14 15 16 17 18 19 20 21 22 23 24 25 26 27 28 29 30 31 32 33 34 35 36 37 38 39 40 41 42 43 44 45 46 47 48 49 50

218
ASUS43 KLSX 051007
RWRMO

WEATHER SUMMARY FOR MISSOURI
NATIONAL WEATHER SERVICE SPRINGFIELD MO
400 AM CST MON DEC 05 2016

NOTE: "FAIR" INDICATES FEW OR NO CLOUDS BELOW 12,000 FEET WITH NO
       SIGNIFICANT WEATHER AND/OR OBSTRUCTIONS TO VISIBILITY.
       CURRENT SKY AND/OR WEATHER CONDITIONS ARE NOT AVAILABLE FOR
       CHILLICOTHE AND FARMINGTON.

MOZ001>031-035>038-043-044-053-054-051100-
...NORTHERN AND WESTERN MISSOURI...

CITY           SKY/WX    TMP DP  RH WIND       PRES   REMARKS
KANSAS CTY INT CLEAR     31  28  89 S10       29.92F WCI  22
KANSAS C DTWN  CLEAR     34  33  96 S9        29.95S WCI  27
LEE`S SUMMIT   CLEAR     35  33  92 S12       29.95F WCI  27
ST JOSEPH      FOG       26  25  96 CALM      29.91F VSB 1/2
CHILLICOTHE      N/A     27  25  92 CALM      29.96F
KIRKSVILLE     FOG       28  27  96 S3        29.96F VSB 1/4

$$
MOZ066>068-077>081-088>096-101>105-051100-
...SOUTHWEST MISSOURI...

CITY           SKY/WX    TMP DP  RH WIND       PRES   REMARKS
SPRINGFIELD    FOG       31  30  96 S8        30.00F VSB 1/2 WCI  23
JOPLIN         CLOUDY    34  34 100 S8        30.00F WCI  27
BRANSON        FOG       32  32 100 CALM      30.02F VSB 1/2

$$
MOZ032>034-039>042-045>050-055>058-069>072-051100-
...CENTRAL MISSOURI...

CITY           SKY/WX    TMP DP  RH WIND       PRES   REMARKS
COLUMBIA       FOG       28  28 100 S7        30.00F VSB 1/4 WCI  21
JEFFERSON CITY MOCLDY    27  26  96 SE5       30.03F FOG     WCI  22
ROLLA          CLOUDY    30  29  96 S7        30.00F FOG     WCI  23
SEDALIA        CLOUDY    33  31  92 S8        30.01S WCI  26
WHITEMAN AFB   PTCLDY    28  28 100 S6        29.98F FOG     WCI  22
WARRENSBURG    CLEAR     32  32 100 S7        29.98F WCI  26
OSAGE BEACH    CLOUDY    29  28  96 CALM      30.02F

$$
MOZ051-052-059>065-051100-
...EAST CENTRAL MISSOURI...

CITY           SKY/WX    TMP DP  RH WIND       PRES   REMARKS
ST LOUIS INTL  CLOUDY    37  32  82 S5        30.05F
SPIRIT OF STL  FOG       27  27 100 CALM      30.05F VSB 1/2
ST CHARLES     CLOUDY    33  33 100 SE3       30.05F FOG

$$
MOZ072>076-082>087-097>100-106>115-051100-
...SOUTH CENTRAL AND SOUTHEAST MISSOURI...

CITY           SKY/WX    TMP DP  RH WIND       PRES   REMARKS
CAPE GIRARDEAU PTCLDY    36  32  85 CALM      30.07F
FARMINGTON     FOG       28  27  96 CALM      30.05F VSB 1/4
POPLAR BLUFF   PTCLDY    35  34  96 CALM      30.06F
WEST PLAINS    CLOUDY    31  30  96 CALM      30.05S FOG

$$



USA.gov is the U.S. government's official web portal to all federal, state and local government web resources and services.